Tillbaka till svenska Fidonet
English   Information   Debug  
FILM   0/18
FNEWS_PUBLISH   4997
FN_SYSOP   42235
FN_SYSOP_OLD1   71952
FTP_FIDO   0/2
FTSC_PUBLIC   0/13977
FUNNY   0/4886
GENEALOGY.EUR   0/71
GET_INFO   105
GOLDED   0/408
HAM   13875/16741
HOLYSMOKE   0/6791
HOT_SITES   0/1
HTMLEDIT   0/71
HUB203   466
HUB_100   264
HUB_400   39
HUMOR   0/29
IC   0/2851
INTERNET   0/424
INTERUSER   0/3
IP_CONNECT   719
JAMNNTPD   0/233
JAMTLAND   0/47
KATTY_KORNER   0/41
LAN   0/16
LINUX-USER   0/19
LINUXHELP   0/1155
LINUX   0/22408
LINUX_BBS   0/957
mail   18.68
mail_fore_ok   249
MENSA   0/341
MODERATOR   0/102
MONTE   0/992
MOSCOW_OKLAHOMA   0/1245
MUFFIN   285/783
MUSIC   0/321
N203_STAT   938
N203_SYSCHAT   313
NET203   321
NET204   69
NET_DEV   0/10
NORD.ADMIN   0/101
NORD.CHAT   0/2572
NORD.FIDONET   189
NORD.HARDWARE   0/28
NORD.KULTUR   0/114
NORD.PROG   0/32
NORD.SOFTWARE   0/88
NORD.TEKNIK   0/58
NORD   0/453
OCCULT_CHAT   0/93
OS2BBS   0/787
OS2DOSBBS   0/580
OS2HW   0/42
OS2INET   0/37
OS2LAN   0/134
OS2PROG   0/36
OS2REXX   0/113
OS2USER-L   207
OS2   0/4831
OSDEBATE   0/18996
PASCAL   0/490
PERL   0/457
PHP   0/45
POINTS   0/405
POLITICS   0/29554
POL_INC   9981/14731
PSION   103
R20_ADMIN   1133
R20_AMATORRADIO   0/2
R20_BEST_OF_FIDONET   16
R20_CHAT   0/897
R20_DEPP   0/3
R20_DEV   400
R20_ECHO2   1901
R20_ECHOPRES   0/35
R20_ESTAT   0/719
R20_FIDONETPROG...
...RAM.MYPOINT
  0/2
R20_FIDONETPROGRAM   0/22
R20_FIDONET   0/248
R20_FILEFIND   0/24
R20_FILEFOUND   0/22
R20_HIFI   0/3
R20_INFO2   3793
R20_INTERNET   0/12940
R20_INTRESSE   0/60
R20_INTR_KOM   0/99
R20_KANDIDAT.CHAT   42
R20_KANDIDAT   28
R20_KOM_DEV   112
R20_KONTROLL   0/13360
R20_KORSET   0/18
R20_LOKALTRAFIK   0/24
R20_MODERATOR   1306/1852
R20_NC   76
R20_NET200   245
R20_NETWORK.OTH...
...ERNETS
  0/13
R20_OPERATIVSYS...
...TEM.LINUX
  0/44
R20_PROGRAMVAROR   0/1
R20_REC2NEC   534
R20_SFOSM   0/341
R20_SF   0/108
R20_SPRAK.ENGLISH   0/1
R20_SQUISH   107
R20_TEST   2
R20_WORST_OF_FIDONET   20
RAR   0/9
RA_MULTI   106
RA_UTIL   0/162
REGCON.EUR   0/2072
REGCON   0/13
SCIENCE   0/1206
SF   0/239
SHAREWARE_SUPPORT   0/5146
SHAREWRE   0/14
SIMPSONS   0/169
STATS_OLD1   0/2539.065
STATS_OLD2   0/2530
STATS_OLD3   0/2395.095
STATS_OLD4   0/1692.25
SURVIVOR   0/495
SYSOPS_CORNER   0/3
SYSOP   0/84
TAGLINES   0/112
TEAMOS2   0/4530
TECH   0/2617
TEST.444   0/105
TRAPDOOR   0/19
TREK   0/755
TUB   0/290
UFO   0/40
UNIX   0/1316
USA_EURLINK   0/102
USR_MODEMS   0/1
VATICAN   0/2740
VIETNAM_VETS   0/14
VIRUS   0/378
VIRUS_INFO   0/201
VISUAL_BASIC   0/473
WHITEHOUSE   0/5187
WIN2000   0/101
WIN32   0/30
WIN95   0/4291
WIN95_OLD1   0/70272
WINDOWS   0/1517
WWB_SYSOP   0/419
WWB_TECH   0/810
ZCC-PUBLIC   0/1
ZEC   4

 
4DOS   0/134
ABORTION   0/7
ALASKA_CHAT   0/506
ALLFIX_FILE   0/1313
ALLFIX_FILE_OLD1   0/7997
ALT_DOS   0/152
AMATEUR_RADIO   0/1039
AMIGASALE   0/14
AMIGA   0/331
AMIGA_INT   0/1
AMIGA_PROG   0/20
AMIGA_SYSOP   0/26
ANIME   0/15
ARGUS   0/924
ASCII_ART   0/340
ASIAN_LINK   0/651
ASTRONOMY   0/417
AUDIO   0/92
AUTOMOBILE_RACING   0/105
BABYLON5   0/17862
BAG   135
BATPOWER   0/361
BBBS.ENGLISH   0/382
BBSLAW   0/109
BBS_ADS   0/5290
BBS_INTERNET   0/507
BIBLE   2327/3563
BINKD   0/1119
BINKLEY   0/215
BLUEWAVE   0/2173
CABLE_MODEMS   0/25
CBM   0/46
CDRECORD   0/66
CDROM   0/20
CLASSIC_COMPUTER   0/378
COMICS   0/15
CONSPRCY   0/899
COOKING   42108
COOKING_OLD1   0/24719
COOKING_OLD2   0/40862
COOKING_OLD3   0/37489
COOKING_OLD4   0/35496
COOKING_OLD5   9370
C_ECHO   0/189
C_PLUSPLUS   0/31
DIRTY_DOZEN   0/201
DOORGAMES   0/2364
DOS_INTERNET   0/196
duplikat   6102
ECHOLIST   0/18295
EC_SUPPORT   0/318
ELECTRONICS   0/359
ELEKTRONIK.GER   1534
ENET.LINGUISTIC   0/13
ENET.POLITICS   0/4
ENET.SOFT   0/11701
ENET.SYSOP   34340
ENET.TALKS   0/32
ENGLISH_TUTOR   0/2000
EVOLUTION   0/1335
FDECHO   0/217
FDN_ANNOUNCE   0/7068
FIDONEWS   25138
FIDONEWS_OLD1   0/49742
FIDONEWS_OLD2   0/35949
FIDONEWS_OLD3   0/30874
FIDONEWS_OLD4   0/37224
FIDO_SYSOP   12976
FIDO_UTIL   0/180
FILEFIND   0/209
FILEGATE   0/212
Möte HAM, 16741 texter
 lista första sista föregående nästa
Text 2868, 773 rader
Skriven 2009-03-26 19:00:26 av Amsat List (1:323/120.0)
Ärende: [keps]  orb09085.amsa
=============================
[keps]  orb09085.amsa

Return-Path: <keps-bounces@amsat.org>
X-Rcpt: craig.healy@chowda.com
X-UIDL: 1238153780.8431

SB KEPS @ AMSAT  $ORB09085.O
Orbital Elements  09085.OSCAR

HR AMSAT ORBITAL ELEMENTS FOR OSCAR SATELLITES
FROM WA5QGD FORT WORTH,TX March 26, 2009
Send Subscribe/unsubscribe to KEPS at 
http://www.amsat.org/mailman/listinfo/keps
BID: ORB09085.O
TO ALL RADIO AMATEURS BT

Satellite: AO-07
Catalog number: 07530
Epoch time:      09085.48917308
Element set:     435
Inclination:      101.4351 deg
RA of node:       113.1799 deg
Eccentricity:    0.0012083
Arg of perigee:   071.2498 deg
Mean anomaly:     288.9888 deg
Mean motion:   12.53575422 rev/day
Decay rate:       -2.7e-07 rev/day^2
Epoch rev:           57235
Checksum:              317

Satellite: AO-10
Catalog number: 14129
Epoch time:      09084.21263345
Element set:     636
Inclination:      025.9627 deg
RA of node:       165.1988 deg
Eccentricity:    0.5983618
Arg of perigee:   208.6717 deg
Mean anomaly:     098.3335 deg
Mean motion:   02.05871534 rev/day
Decay rate:      -3.81e-06 rev/day^2
Epoch rev:           19389
Checksum:              339

Satellite: UO-11
Catalog number: 14781
Epoch time:      09084.63394756
Element set:    0920
Inclination:      098.1171 deg
RA of node:       128.3078 deg
Eccentricity:    0.0008040
Arg of perigee:   245.6597 deg
Mean anomaly:     114.3761 deg
Mean motion:   14.79702343 rev/day
Decay rate:       3.32e-06 rev/day^2
Epoch rev:           34547
Checksum:              308

Satellite: RS-15
Catalog number: 23439
Epoch time:      09084.96447069
Element set:    0196
Inclination:      064.8131 deg
RA of node:       039.3921 deg
Eccentricity:    0.0146577
Arg of perigee:   067.6634 deg
Mean anomaly:     293.9748 deg
Mean motion:   11.27553267 rev/day
Decay rate:       -3.9e-07 rev/day^2
Epoch rev:           58673
Checksum:              355

Satellite: FO-29
Catalog number: 24278
Epoch time:      09085.54575694
Element set:       4
Inclination:      098.5652 deg
RA of node:       330.6426 deg
Eccentricity:    0.0350398
Arg of perigee:   204.3554 deg
Mean anomaly:     154.0666 deg
Mean motion:   13.52942088 rev/day
Decay rate:      -1.07e-06 rev/day^2
Epoch rev:           62257
Checksum:              326

Satellite: SO-33
Catalog number: 25509
Epoch time:      09084.59847366
Element set:     416
Inclination:      031.4337 deg
RA of node:       165.1543 deg
Eccentricity:    0.0355063
Arg of perigee:   327.6082 deg
Mean anomaly:     030.3194 deg
Mean motion:   14.28246298 rev/day
Decay rate:        4.3e-07 rev/day^2
Epoch rev:           54387
Checksum:              314

Satellite: AO-40
Catalog number: 26609
Epoch time:      09085.02556956
Element set:     205
Inclination:      009.0132 deg
RA of node:       026.5737 deg
Eccentricity:    0.7956986
Arg of perigee:   188.2915 deg
Mean anomaly:     137.1619 deg
Mean motion:   01.25585175 rev/day
Decay rate:      -3.24e-06 rev/day^2
Epoch rev:            3858
Checksum:              334

Satellite: RS-22
Catalog number: 27939
Epoch time:      09084.70777202
Element set:    0749
Inclination:      097.9573 deg
RA of node:       322.5603 deg
Eccentricity:    0.0014432
Arg of perigee:   039.1044 deg
Mean anomaly:     321.1197 deg
Mean motion:   14.63302864 rev/day
Decay rate:        5.7e-07 rev/day^2
Epoch rev:           29336
Checksum:              310

Satellite: VO-52
Catalog number: 28650
Epoch time:      09084.84394956
Element set:    0188
Inclination:      097.7505 deg
RA of node:       149.1491 deg
Eccentricity:    0.0026264
Arg of perigee:   303.4523 deg
Mean anomaly:     056.4130 deg
Mean motion:   14.81563845 rev/day
Decay rate:      -1.38e-06 rev/day^2
Epoch rev:           21030
Checksum:              309

Satellite: PO-63
Catalog number: 29712
Epoch time:      09085.22546733
Element set:     344
Inclination:      097.8377 deg
RA of node:       143.5870 deg
Eccentricity:    0.0014032
Arg of perigee:   180.3660 deg
Mean anomaly:     179.7544 deg
Mean motion:   14.80482195 rev/day
Decay rate:       5.16e-06 rev/day^2
Epoch rev:           11919
Checksum:              320

/EX
SB KEPS @ AMSAT  $ORB09085.D
Orbital Elements  09085.MICROS

HR AMSAT ORBITAL ELEMENTS FOR THE MICROSATS
FROM WA5QGD FORT WORTH,TX March 26, 2009
Send Subscribe/unsubscribe to KEPS at 
http://www.amsat.org/mailman/listinfo/keps
BID: ORB09085.D
TO ALL RADIO AMATEURS BT

Satellite: AO-16
Catalog number: 20439
Epoch time:      09085.39466014
Element set:     565
Inclination:      098.2700 deg
RA of node:       057.6000 deg
Eccentricity:    0.0011887
Arg of perigee:   058.8355 deg
Mean anomaly:     301.3999 deg
Mean motion:   14.31819339 rev/day
Decay rate:        1.0e-07 rev/day^2
Epoch rev:             130
Checksum:              291

Satellite: LO-19
Catalog number: 20442
Epoch time:      09084.48704021
Element set:     485
Inclination:      098.2330 deg
RA of node:       064.3171 deg
Eccentricity:    0.0013005
Arg of perigee:   057.3583 deg
Mean anomaly:     302.8893 deg
Mean motion:   14.32055914 rev/day
Decay rate:        8.2e-07 rev/day^2
Epoch rev:             133
Checksum:              268

Satellite: AO-27
Catalog number: 22825
Epoch time:      09085.39836204
Element set:     207
Inclination:      098.4273 deg
RA of node:       041.4654 deg
Eccentricity:    0.0008866
Arg of perigee:   143.1442 deg
Mean anomaly:     217.0372 deg
Mean motion:   14.29261133 rev/day
Decay rate:       -5.8e-07 rev/day^2
Epoch rev:           80808
Checksum:              301

